Dewpoint
53 52 51 52 53 53 53 53 53 53 54 54 55 55 55 55 56 56 57 57 57 58 58 58 59 59 60 60 60 60 58 42 39 39 38 41 52 64 66 67 65 65 59 32 25 23 21 24 24 24 28 26 28 30 33 32 34 31 26 23 22 24 20 23 19 20 24 18 16 20 20 18 20 22 26 25 22 25 26 26 27 28 30 29 28 39 37 46
52 51 51 52 52 52 52 52 53 53 53 54 54 54 55 55 55 56 56 57 57 57 58 59 59 60 60 60 60 60 53 42 37 36 37 50 64 65 66 66 65 62 55 33 26 23 21 21 27 21 23 22 33 29 32 31 33 26 24 25 22 21 21 24 21 19 19 22 18 21 22 20 19 21 23 21 21 22 23 22 26 25 25 33 40 51 52 58
52 51 51 52 52 52 52 52 53 53 53 53 54 54 54 55 55 56 56 57 57 57 58 59 59 59 59 60 60 59 46 40 33 30 34 59 61 65 65 65 64 58 37 33 34 27 25 25 26 19 22 20 23 26 29 27 31 28 22 16 22 23 20 23 22 20 21 21 19 20 22 21 22 22 25 23 21 23 21 20 22 22 24 27 35 52 56 58
51 50 50 51 51 52 52 52 53 53 53 53 54 53 54 55 55 55 56 56 57 57 58 58 59 59 59 60 60 56 37 28 28 31 39 57 63 63 64 64 61 54 39 37 31 27 26 24 23 21 26 21 24 28 23 25 21 26 22 18 21 22 23 23 23 22 21 21 20 20 22 21 22 21 23 20 20 20 22 22 19 19 21 25 32 51 56 57
51 52 50 52 52 52 52 52 52 52 52 52 53 54 54 54 55 55 56 56 57 57 58 58 59 59 59 59 59 48 33 13 20 37 41 61 62 63 64 64 56 41 37 33 29 28 24 24 23 24 24 22 26 22 21 25 26 25 19 23 23 25 24 23 23 25 23 24 21 21 19 19 23 24 21 20 18 18 19 21 22 21 22 27 32 48 54 56
51 52 53 52 51 51 51 51 52 52 52 52 53 53 54 54 55 55 55 56 57 57 58 58 59 59 60 59 52 39 29 15 26 42 58 61 63 61 62 62 54 34 33 32 29 28 27 22 20 23 20 20 21 19 21 23 26 20 21 22 23 24 22 23 24 26 21 21 20 20 21 23 22 23 23 20 19 19 22 24 24 23 24 28 33 45 53 55
51 51 51 52 51 50 50 51 51 51 51 52 53 53 53 54 54 55 55 56 56 57 58 58 58 59 59 57 46 30 25 28 39 42 59 61 61 57 58 58 50 35 33 31 30 27 28 22 21 24 21 22 21 21 23 23 24 23 19 22 23 23 23 26 26 26 22 20 20 21 23 23 21 20 23 21 21 20 21 23 27 29 28 31 33 43 53 54
51 52 51 51 50 49 50 51 51 52 51 52 52 53 53 54 54 54 55 56 56 57 58 58 58 59 58 41 38 30 32 30 33 46 56 57 49 43 56 40 37 38 32 31 31 27 26 22 18 23 19 18 20 20 23 23 21 23 21 24 25 24 24 25 24 23 24 23 24 25 22 22 22 22 23 22 22 22 23 31 31 30 30 33 32 35 46 53
52 51 51 51 51 51 49 52 52 52 52 51 52 53 53 53 54 54 55 55 56 57 57 58 58 59 56 35 26 21 20 33 45 50 49 44 41 38 42 38 35 33 34 35 32 31 28 25 25 20 16 20 23 22 23 19 18 27 24 25 25 24 26 26 24 25 25 25 25 22 22 23 24 25 23 22 22 24 27 31 32 32 32 33 32 32 37 45
53 52 52 52 52 52 52 52 52 52 53 53 52 52 53 53 53 54 54 55 56 57 57 58 59 57 41 32 26 16 25 48 50 50 46 43 36 37 37 40 34 33 32 32 32 28 28 25 24 24 22 22 24 23 25 22 20 25 25 25 24 25 27 27 24 25 25 26 24 22 22 22 23 23 19 23 27 32 30 30 32 31 29 32 32 33 33 36
53 52 52 52 51 52 52 51 52 53 52 53 53 52 54 53 53 54 54 55 56 57 57 58 58 49 40 28 19 13 40 48 49 47 45 41 37 36 38 39 37 34 32 33 34 34 29 27 31 26 26 19 24 23 24 25 24 25 25 25 23 25 27 26 25 26 25 23 25 22 22 24 24 25 20 22 27 31 28 29 31 32 30 31 32 33 35 35
54 53 53 53 52 51 52 52 52 53 53 52 53 53 53 53 54 54 54 55 56 57 57 58 57 50 35 32 24 24 38 47 47 46 44 42 40 41 40 39 37 38 33 30 34 38 34 30 27 23 19 26 21 24 24 27 25 25 25 22 23 24 24 24 25 25 27 23 24 23 23 22 24 21 24 26 29 30 29 28 30 31 31 32 32 33 34 35
55 54 54 54 53 52 52 52 52 52 53 53 53 53 53 54 54 54 54 55 56 57 58 58 55 48 33 21 26 36 38 41 44 42 42 43 42 41 40 41 38 35 33 29 32 38 35 29 26 23 28 22 23 21 26 29 28 25 25 24 23 23 22 24 28 25 24 24 24 24 23 23 23 22 23 25 29 29 28 28 28 30 30 31 32 32 33 34
56 55 54 54 54 53 53 52 53 53 53 53 53 53 54 54 54 55 55 56 57 57 58 58 53 37 30 25 33 41 44 47 46 41 42 44 35 38 39 38 36 34 39 35 37 38 35 30 26 24 26 23 23 32 27 28 27 23 24 26 25 20 21 24 26 25 23 25 25 24 24 21 22 23 24 26 28 27 26 26 27 28 29 30 31 32 32 33
56 56 55 55 55 55 54 54 54 54 54 53 54 54 54 55 55 56 56 57 57 58 59 54 46 34 27 26 36 43 53 43 41 42 44 36 34 35 34 35 34 34 33 35 35 35 31 32 28 26 25 29 28 25 25 26 26 26 20 22 25 21 23 25 31 25 23 24 24 24 25 22 22 23 24 26 29 28 26 25 26 27 28 29 30 30 31 31
56 56 56 55 55 55 55 55 55 55 55 54 54 55 55 55 56 57 57 57 59 57 53 48 41 35 28 23 37 50 42 41 41 43 45 40 38 36 37 36 36 32 32 32 35 33 33 32 27 26 26 25 25 25 24 24 24 25 21 23 21 25 23 21 25 26 26 23 25 23 21 22 21 22 24 27 27 27 26 26 26 26 26 28 28 29 30 31
56 56 56 56 56 55 55 56 56 56 55 55 55 55 55 56 56 57 58 57 53 51 47 41 40 32 14 23 35 30 33 41 43 43 42 41 40 37 35 34 31 30 31 32 33 33 31 30 31 28 29 25 27 27 23 22 21 23 25 22 25 22 22 20 24 27 27 23 22 24 22 21 22 23 23 24 28 27 26 25 25 26 26 26 27 28 28 29
57 56 56 56 56 56 56 56 56 55 55 55 55 55 54 57 58 55 55 49 48 46 44 41 34 19 18 24 22 28 42 43 42 42 40 39 36 33 32 31 32 32 31 30 31 28 31 28 30 27 27 27 25 25 22 18 20 21 24 24 23 24 24 20 23 25 23 22 22 22 21 22 22 23 23 23 27 26 25 25 25 25 25 26 26 27 27 28
57 57 56 56 56 56 56 56 56 55 54 55 55 55 56 57 46 47 45 39 26 23 19 26 11 12 13 15 31 41 43 43 42 41 37 38 37 35 36 34 34 31 31 30 29 29 31 31 32 28 25 25 24 23 20 21 22 21 25 24 25 21 22 23 25 27 23 22 21 21 22 22 23 23 23 24 27 25 25 25 25 25 26 26 26 26 27 28
58 57 57 56 56 56 56 56 56 55 55 52 50 44 33 32 25 36 32 39 28 20 23 25 25 24 31 34 39 43 43 40 38 39 41 41 36 34 32 33 35 32 30 30 31 30 32 28 25 25 25 25 25 24 22 22 22 25 26 25 23 23 23 25 26 27 27 24 23 23 23 22 23 23 23 24 26 26 25 25 25 25 25 26 26 26 27 27
58 57 57 57 57 57 56 56 55 54 54 51 50 31 18 25 13 12 19 34 39 34 34 37 30 27 27 37 39 40 38 37 40 40 40 39 34 33 32 31 31 30 30 31 31 30 31 26 26 26 25 25 26 26 26 26 26 24 25 25 25 26 22 24 25 27 28 25 24 24 23 24 23 23 23 24 23 23 23 24 24 24 25 25 26 26 27 26
58 58 57 57 57 57 57 56 55 56 54 52 48 31 38 29 25 25 29 22 28 39 39 39 38 37 39 40 41 41 37 35 38 39 41 37 33 31 31 30 30 28 30 30 29 28 27 26 26 27 27 27 27 26 26 25 26 26 24 25 25 25 26 25 26 27 28 25 23 24 24 24 25 25 26 26 25 25 25 25 25 25 25 26 26 27 27 28
58 58 57 57 57 57 56 56 55 55 45 45 45 42 44 48 48 46 32 30 27 34 37 37 33 34 36 37 39 39 35 31 31 36 40 36 33 32 31 29 29 29 30 29 27 26 24 26 28 28 28 27 27 26 26 26 27 26 26 25 23 26 22 18 22 28 25 24 24 25 25 25 26 27 27 27 26 26 27 26 26 26 26 26 26 26 27 27
58 58 57 57 57 57 56 55 55 53 49 48 46 44 47 51 46 42 33 22 20 28 34 34 32 33 31 28 34 37 33 32 32 34 40 34 32 33 30 30 29 29 29 29 27 26 23 26 31 28 28 26 26 26 26 25 25 27 27 26 25 26 26 21 19 26 28 27 28 26 27 26 26 25 25 26 29 30 29 28 28 28 30 29 31 31 30 26
58 57 57 57 57 57 56 55 52 50 50 48 47 48 48 48 48 46 26 19 20 23 34 29 35 35 32 42 41 36 37 34 32 34 41 34 31 31 30 31 30 28 28 29 28 27 26 27 29 28 27 28 27 26 27 27 24 26 27 27 25 25 24 25 26 25 25 25 26 25 22 22 25 26 26 26 27 26 28 29 28 28 29 30 28 29 30 32
58 57 57 57 57 56 56 52 51 51 48 45 46 46 48 47 46 41 22 17 15 21 25 24 35 26 37 36 39 37 30 29 33 37 39 36 40 31 30 29 29 27 29 29 28 28 27 29 29 28 28 27 27 26 27 27 24 24 23 27 26 25 26 26 26 26 22 19 25 26 20 19 26 23 22 24 25 25 26 28 27 27 28 29 30 31 30 30
57 57 57 57 57 56 52 48 51 49 43 42 45 46 46 47 46 41 17 18 13 24 23 29 26 24 35 31 37 20 13 18 36 39 37 39 34 37 28 28 28 30 30 29 25 23 29 29 29 29 28 28 27 25 27 26 25 23 27 28 27 26 27 27 27 26 25 27 28 28 25 23 23 23 26 26 26 26 27 27 28 28 28 28 29 30 31 32
57 57 57 57 57 55 52 51 49 47 44 44 47 46 47 47 42 30 20 7 8 25 23 28 29 32 35 37 32 16 18 30 27 35 38 38 37 32 27 28 26 28 30 26 22 25 29 28 28 28 27 27 26 27 28 27 24 25 28 28 28 27 27 27 27 26 26 25 24 27 28 22 23 26 28 28 26 26 26 26 25 24 26 27 29 30 31 32
57 57 57 57 56 55 54 51 49 47 48 47 47 48 48 41 30 20 16 7 17 22 31 26 36 34 35 35 27 31 28 33 20 31 38 36 37 32 27 28 27 29 30 26 21 24 25 29 30 29 28 26 28 29 29 28 24 27 29 29 28 28 27 27 27 26 25 23 20 26 24 14 14 24 24 27 27 24 24 23 22 23 24 27 29 31 32 32
56 57 57 57 56 54 53 53 51 51 50 49 49 49 46 35 21 19 10 7 24 17 26 28 28 28 33 31 28 30 26 29 34 35 35 34 34 33 31 31 29 29 29 29 28 26 28 33 33 29 27 27 30 30 30 30 29 31 30 29 28 26 26 25 25 24 20 16 21 26 25 17 12 23 20 22 24 25 24 24 24 25 26 26 29 30 33 33
55 56 56 56 54 53 52 50 52 52 51 51 50 48 41 34 21 14 13 19 21 25 30 27 27 33 31 29 27 29 30 30 34 34 33 34 32 32 31 27 30 28 26 26 27 28 29 30 30 31 33 31 32 31 31 30 30 31 29 28 27 25 20 20 15 21 17 18 22 26 26 21 15 20 23 24 24 27 25 22 20 21 22 25 31 32 33 32
54 55 57 56 56 54 51 50 52 52 52 52 50 46 40 23 28 17 20 20 21 24 27 27 28 31 29 28 27 28 26 31 33 33 32 32 32 29 28 24 27 21 21 24 23 26 26 28 30 31 35 31 30 31 30 30 30 30 28 25 19 16 15 9 16 15 16 14 19 24 26 24 22 19 23 25 26 25 26 26 24 23 23 25 28 32 33 32
54 54 56 56 55 53 53 53 53 53 53 51 47 44 34 28 22 24 25 22 21 27 26 29 28 31 30 27 26 28 29 26 30 32 32 31 32 31 30 26 28 21 14 20 24 21 24 26 28 29 30 32 30 26 28 26 29 29 28 25 18 9 9 7 8 3 9 15 20 22 23 22 24 23 26 25 25 26 26 27 28 28 28 28 30 32 32 32
53 54 53 55 56 55 54 53 53 53 52 50 45 39 33 27 27 33 27 23 27 30 31 30 30 29 29 25 27 29 25 27 33 32 32 31 31 30 31 32 28 26 26 23 21 23 14 17 21 29 26 32 29 24 28 26 29 29 29 25 23 17 12 6 5 1 9 12 17 19 17 19 19 21 24 26 26 27 27 27 29 30 31 31 32 32 32 32
53 52 51 53 55 56 53 53 53 53 52 48 41 33 27 26 31 30 29 29 24 31 31 30 30 29 28 28 29 29 28 24 31 31 30 31 29 29 29 29 31 27 26 17 21 21 20 18 22 28 29 32 30 31 31 30 29 28 29 27 20 20 15 3 11 8 6 14 15 15 18 22 21 23 26 28 28 29 29 29 30 29 29 31 31 31 31 32
49 47 52 52 53 55 54 54 53 53 50 44 36 31 28 29 28 33 32 33 29 30 30 30 29 28 27 27 29 29 30 25 28 30 29 30 28 29 29 29 30 28 23 17 23 19 19 18 26 29 31 31 30 30 29 25 18 25 29 25 26 25 20 17 14 15 12 11 15 12 20 22 23 21 24 25 25 26 27 27 28 28 29 30 31 31 31 32
44 46 46 50 51 54 54 54 53 51 49 41 34 30 32 34 36 34 37 34 33 35 30 26 29 27 27 26 28 29 29 32 30 29 27 29 28 30 28 30 31 30 26 19 23 27 19 20 27 28 28 30 31 31 30 31 26 29 25 27 28 27 26 19 13 13 14 14 14 17 14 14 17 15 23 23 24 24 24 25 26 28 29 29 30 31 31 32
44 43 45 45 49 54 54 54 53 50 46 39 32 34 36 34 39 37 38 36 34 34 31 27 27 30 28 27 27 29 29 27 28 29 27 28 26 31 29 28 31 30 29 25 18 24 24 18 24 30 29 29 30 30 30 30 30 27 27 30 24 18 17 25 17 12 10 10 15 16 20 20 19 17 20 18 23 23 23 25 25 25 26 27 29 31 31 31
43 42 38 42 48 54 53 54 52 47 39 34 33 34 37 35 39 37 37 36 36 32 29 30 27 31 32 28 28 30 30 26 31 29 26 28 24 28 29 29 28 31 30 26 22 25 24 18 19 30 28 29 30 30 27 28 29 30 30 27 29 26 20 18 20 15 16 9 4 15 14 11 23 21 20 17 21 24 23 24 25 25 26 26 30 30 31 31
39 38 37 44 51 53 53 52 47 43 38 32 33 35 39 35 36 37 37 35 35 32 31 31 32 29 33 31 31 29 32 30 30 30 27 29 26 29 29 30 27 29 31 28 26 31 23 20 16 23 29 29 28 29 27 29 28 27 27 27 27 24 26 25 21 19 15 7 6 9 12 15 19 24 23 20 20 23 26 26 26 26 27 29 30 31 32 31
42 37 37 49 52 53 52 48 41 36 35 37 36 35 36 35 36 36 36 36 37 39 34 33 36 34 35 33 32 34 32 33 31 30 29 27 27 23 29 30 30 30 30 30 28 28 21 20 18 26 26 26 28 28 28 29 29 27 26 26 26 26 21 16 19 25 15 15 17 10 15 19 20 27 24 23 22 23 26 26 28 28 29 30 31 31 31 31
41 32 36 49 53 52 48 39 37 40 37 35 34 36 34 40 35 34 35 36 36 36 39 32 34 32 32 34 35 33 33 32 32 30 31 27 28 26 27 31 30 32 30 29 28 30 26 26 23 23 26 27 27 29 30 29 30 29 28 26 28 27 25 18 15 18 18 21 20 17 11 17 21 27 26 25 26 27 27 29 28 28 30 30 31 31 31 31
38 35 45 46 52 51 45 38 40 38 37 38 38 37 38 37 35 35 35 36 35 37 36 35 33 32 32 32 33 34 33 31 32 31 32 31 29 28 28 31 32 32 32 30 32 32 33 27 22 27 28 27 29 28 29 29 30 29 29 27 28 27 27 24 18 22 23 18 18 16 13 19 24 27 28 29 29 29 29 29 29 29 29 30 30 30 30 30
38 37 38 43 50 50 41 33 34 35 37 38 38 37 39 38 36 34 34 35 35 35 34 35 35 33 31 32 33 32 33 30 33 32 31 32 30 31 31 31 32 32 29 30 27 32 26 30 26 22 19 22 26 29 28 28 29 28 27 28 29 29 28 26 23 19 18 22 23 21 18 19 26 28 28 27 27 27 27 27 28 29 29 30 30 30 31 30
36 35 36 39 47 45 36 39 37 36 37 37 37 36 38 38 39 36 35 35 36 34 34 35 36 37 35 35 33 34 36 32 29 34 32 31 31 32 31 33 33 31 33 34 35 33 29 29 26 22 20 18 17 19 22 26 29 28 27 27 29 29 28 27 25 21 21 22 23 21 19 19 26 28 28 28 28 27 27 28 27 29 29 29 30 31 30 30
33 25 32 37 39 39 38 39 36 37 36 36 36 37 37 36 40 39 37 36 35 36 35 37 36 38 36 36 33 34 34 36 32 30 32 31 31 31 31 33 33 33 34 37 34 32 30 31 28 25 23 21 21 23 27 30 27 27 28 29 29 30 30 29 25 22 23 24 22 24 23 21 21 25 27 28 27 27 28 28 28 28 28 29 29 30 30 30
34 27 31 28 37 35 33 35 37 37 34 37 34 36 35 36 37 39 39 37 37 35 36 36 36 35 36 35 34 33 35 34 35 32 32 32 30 30 32 33 33 34 36 34 36 32 32 29 30 29 26 25 24 24 29 29 27 28 28 28 30 29 29 29 27 25 27 21 22 25 25 25 24 24 27 28 29 28 28 28 28 28 29 30 30 30 32 31
30 30 31 34 33 28 28 27 34 36 37 37 35 34 33 34 35 35 39 38 39 37 36 35 36 36 35 35 34 32 33 34 35 33 33 32 31 31 31 33 32 34 37 37 37 31 32 28 30 31 29 28 27 27 29 29 28 28 28 28 29 30 29 28 29 28 28 26 23 24 26 26 24 25 26 28 29 28 28 28 28 29 28 28 28 28 28 28
33 34 33 34 31 34 33 33 32 32 33 35 34 36 34 34 34 35 35 37 38 37 37 34 34 36 36 36 35 33 33 31 32 34 32 31 32 30 30 32 33 34 36 35 35 34 31 29 31 31 30 30 29 29 29 29 27 27 28 29 29 30 30 29 29 29 29 28 28 27 26 26 25 25 27 27 30 30 29 29 29 29 28 29 29 28 28 28
32 32 30 34 32 30 31 31 33 35 33 35 32 33 34 34 34 35 36 37 33 36 38 35 35 35 36 36 35 34 34 33 33 32 34 32 30 32 32 33 31 32 34 33 34 35 33 29 33 31 30 30 31 31 29 29 28 26 27 28 29 30 30 30 30 30 30 29 29 28 28 27 28 29 29 30 30 30 31 30 30 30 30 29 29 29 29 29
37 36 35 31 28 28 28 28 29 31 31 34 33 33 34 33 33 35 35 40 37 35 38 36 36 36 36 36 36 36 36 36 35 34 35 35 32 35 32 32 35 33 33 33 33 34 33 31 33 32 30 30 32 32 31 28 28 28 28 28 29 29 29 29 30 30 29 29 29 29 29 28 29 30 30 31 31 31 30 31 31 31 30 30 30 30 30 30
37 38 37 33 25 31 26 29 29 28 27 31 32 32 32 32 34 35 33 36 37 38 38 39 38 36 35 36 35 36 37 37 37 37 37 39 38 38 38 37 37 32 32 32 33 34 33 32 32 32 31 30 33 32 32 31 31 30 30 30 30 30 30 29 31 31 30 30 29 28 28 29 29 31 31 31 31 31 31 31 31 32 32 32 31 31 31 31